Regional Weather Roundup
Issued by NWS

Home | Current Version | Previous Version | Text Only | Print | Product List | Glossary On
Versions: 1 2 3 4 5 6 7 8 9 10 11 12 13 14 15 16 17 18 19 20 21 22 23 24 25 26 27 28 29 30 31 32 33 34 35 36 37 38 39 40 41 42 43 44 45 46 47 48 49 50
000
ASUS44 KMEG 210210
RWRTN
TENNESSEE HOURLY STATE WEATHER ROUNDUP
NATIONAL WEATHER SERVICE MEMPHIS TN
900 PM CDT WED SEP 20 2017

TNZ002-004-019-021-049-052-054-088>092-210300-
WEST TENNESSEE

CITY           SKY/WX    TMP DP  RH WIND       PRES   REMARKS
MEMPHIS INTL   PTCLDY    80  74  81 S7        29.98R
NWS MEMPHIS      N/A     80 N/A N/A MISG        N/A
JACKSON        CLEAR     78  74  87 SE6       29.99R
DYERSBURG      CLEAR     78  73  84 S3        29.97R
SOMERVILLE     CLEAR     77  73  88 CALM      29.97S
COVINGTON      CLEAR     77  73  88 S3        29.97R
BOLIVAR        CLEAR     73  72  94 CALM      29.98S
PARIS          CLEAR     73  72  94 CALM      29.98R
HUNTINGDON     CLEAR     75  72  88 CALM      29.98R
LEXINGTON      CLEAR     73  73 100 CALM      29.99S FOG
SELMER         CLEAR     75  73  94 CALM      30.00R
SAVANNAH       CLEAR     75  73  94 CALM      29.99R
$$

TNZ008-025-027-028-033-062-065-066-210300-
NORTH MIDDLE TENNESSEE

CITY           SKY/WX    TMP DP  RH WIND       PRES   REMARKS
NASHVILLE      PTCLDY    78  69  73 SW5       30.02R
PORTLAND       CLEAR     73  73 100 CALM      30.02R
CLARKSVILLE    CLEAR     76  70  82 SE5       30.00R
SMYRNA         PTCLDY    80  70  70 CALM      30.02R
COOKEVILLE     CLEAR     68  68 100 CALM      30.04R
GALLATIN       CLEAR     75  72  88 CALM      30.04R
CROSSVILLE     CLEAR     67  65  93 CALM      30.10R
$$

TNZ061-075-076-078-094-096-097-210300-
SOUTH MIDDLE TENNESSEE

CITY           SKY/WX    TMP DP  RH WIND       PRES   REMARKS
FAYETTEVILLE   CLEAR     75  70  83 SE5       30.04R
TULLAHOMA      PTCLDY    72  68  88 CALM      30.06S
WINCHESTER     CLEAR     72  70  94 CALM        N/A
MCMINNVILLE    CLEAR     72  72 100 CALM      30.05S
COLUMBIA       PTCLDY    75  73  94 CALM      30.00S
SHELBYVILLE    PTCLDY    73  72  94 CALM      30.03S
$$

TNZ017-018-042-046-047-210300-
NORTHEAST TENNESSEE

CITY           SKY/WX    TMP DP  RH WIND       PRES   REMARKS
TRI CITIES     CLEAR     66  63  90 CALM      30.08R
ELIZABETHTON   PTCLDY    66  63  88 CALM      30.09R
$$

TNZ012-013-036-069-073-074-210300-
CENTRAL EAST TENNESSEE

CITY           SKY/WX    TMP DP  RH WIND       PRES   REMARKS
KNOXVILLE      PTCLDY    74  68  81 CALM      30.04R
OAK RIDGE      CLEAR     72  68  87 CALM      30.06R
DOWNTOWN KNOXV   N/A     70  70 100 CALM      30.03S
GATLINBURG     CLEAR     70  63  78 CALM      30.05R
MORRISTOWN     CLEAR     72  64  78 CALM      30.05S
JACKSBORO      CLEAR     68  66  94 CALM      30.10R
$$

TNZ083-085-099-210300-
SOUTHEAST TENNESSEE

CITY           SKY/WX    TMP DP  RH WIND       PRES   REMARKS
CHATTANOOGA    CLEAR     76  70  82 CALM      30.04R
DAYTON         PTCLDY    70  70 100 CALM      30.04R
$$

SKY/WX REPORTED AS FAIR MEANS FEW OR NO CLOUDS BELOW
12 THOUSAND FEET.





USA.gov is the U.S. government's official web portal to all federal, state and local government web resources and services.